Regional Weather Roundup
Issued by NWS

Home | Current Version | Previous Version | Text Only | Print | Product List | Glossary On
Versions: 1 2 3 4 5 6 7 8 9 10 11 12 13 14 15 16 17 18 19 20 21 22 23 24 25 26 27 28 29 30 31 32 33 34 35 36 37 38 39 40 41 42 43 44 45 46 47 48 49 50
000
ASUS43 KBIS 231402
RWRND

NORTH DAKOTA REGIONAL WEATHER ROUNDUP
NATIONAL WEATHER SERVICE BISMARCK ND
900 AM CDT SAT JUL 23 2016

NOTE: "FAIR" INDICATES FEW OR NO CLOUDS BELOW 12,000 FEET WITH NO
SIGNIFICANT WEATHER AND/OR OBSTRUCTIONS TO VISIBILITY.


NDZ001>003-009>011-017-231500-
NORTHWEST NORTH DAKOTA

CITY           SKY/WX    TMP DP  RH WIND       PRES   REMARKS
WILLISTON      MOSUNNY   69  63  81 SW7       29.83S
MINOT          TSTM      66  63  90 SE8       29.78F FOG
MINOT AFB      CLOUDY    65  63  93 S15       29.76F
$$

NDZ018>021-031>035-040>046-231500-
SOUTHWEST NORTH DAKOTA

CITY           SKY/WX    TMP DP  RH WIND       PRES   REMARKS
BISMARCK       CLOUDY    67  65  93 N24G37    29.81R
DICKINSON      PTSUNNY   66  61  82 N8        29.83R
GARRISON         N/A     66  64  93 E10       29.80S
HETTINGER ARPT PTSUNNY   70  62  76 SW5       29.82S
$$

NDZ004>008-012>016-024-026-027-054-231500-
NORTHEAST NORTH DAKOTA

CITY           SKY/WX    TMP DP  RH WIND       PRES   REMARKS
GRAND FORKS    PTSUNNY   73  65  75 E7        29.82F
GRND FRKS AFB  CLOUDY    72  64  77 E7        29.82F
DEVILS LAKE    CLOUDY    68  65  90 CALM      29.86F
$$

NDZ022-023-025-028>030-036>039-047>053-231500-
SOUTHEAST NORTH DAKOTA

CITY           SKY/WX    TMP DP  RH WIND       PRES   REMARKS
FARGO          CLOUDY    76  64  66 E10       29.78F
JAMESTOWN      CLOUDY    72  68  87 E6        29.77F
$$




USA.gov is the U.S. government's official web portal to all federal, state and local government web resources and services.